| time (UTC) | temp F | wind direction | speed MPH | gust MPH | rain 1hr in | rain 24hr in | rain mn in | humidity % | barometer mb |
| 20260507194528 | 62 | 17 | 3.0 | 9.0 | 0.00 | 0.00 | 0.00 | 53 | 1019.9 |
| 20260507193034 | 61 | 0.0 | 0.0 | 0.00 | 0.00 | 0.00 | 1020.1 | ||
| 20260507191527 | 60 | 248 | 4.0 | 11.0 | 0.00 | 0.00 | 0.00 | 56 | 1020.2 |
| 20260507190033 | 0 | 0.0 | 0.0 | 0.00 | 0.00 | 0.00 | 1020.4 | ||
| 20260507184530 | 59 | 317 | 0.0 | 10.0 | 0.00 | 0.00 | 0.00 | 58 | 1020.4 |
| 20260507183030 | 0 | 0.0 | 0.0 | 0.00 | 0.00 | 0.00 | 1020.6 | ||
| 20260507181529 | 59 | 41 | 2.0 | 9.0 | 0.00 | 0.00 | 0.00 | 58 | 1020.7 |
| 20260507180030 | 0 | 0.0 | 0.0 | 0.00 | 0.00 | 0.00 | 1021.0 | ||
| 20260507174540 | 57 | 9 | 0.0 | 8.0 | 0.00 | 0.00 | 0.00 | 62 | 1020.9 |
| 20260507173034 | 0 | 0.0 | 0.0 | 0.00 | 0.00 | 0.00 | 1021.2 | ||
| 20260507171535 | 56 | 340 | 2.0 | 7.0 | 0.00 | 0.00 | 0.00 | 64 | 1021.3 |
| 20260507170040 | 56 | 321 | 1.0 | 0.0 | 0.00 | 0.00 | 0.00 | 65 | 1021.1 |
| 20260507164533 | 55 | 339 | 3.0 | 7.0 | 0.00 | 0.00 | 0.00 | 68 | 1021.2 |
| 20260507163031 | 0 | 0.0 | 0.0 | 0.00 | 0.00 | 0.00 | 1021.3 | ||
| 20260507161530 | 0 | 300 | 2.0 | 7.0 | 0.00 | 0.00 | 0.00 | 70 | 1021.4 |
| 20260507160033 | 0 | 0.0 | 0.0 | 0.00 | 0.00 | 0.00 | 70 | 1021.3 | |
| 20260507154531 | 0 | 0.0 | 0.0 | 0.00 | 0.00 | 0.00 | 1021.4 | ||
| 20260507153031 | 52 | 323 | 3.0 | 7.0 | 0.00 | 0.00 | 0.00 | 71 | 1021.5 |
| 20260507151533 | 52 | 0.0 | 0.0 | 0.00 | 0.00 | 0.00 | 70 | 1021.4 | |
| 20260507150021 | 51 | 284 | 2.0 | 8.0 | 0.00 | 0.00 | 0.00 | 71 | 1021.6 |
| 20260507144532 | 52 | 325 | 2.0 | 9.0 | 0.00 | 0.00 | 0.00 | 71 | 1021.3 |
| 20260507143034 | 51 | 0.0 | 0.0 | 0.00 | 0.00 | 0.00 | 71 | 1021.3 | |
| 20260507141530 | 51 | 319 | 4.0 | 0.0 | 0.00 | 0.00 | 0.00 | 71 | 1021.4 |
| 20260507140019 | 51 | 296 | 2.0 | 5.0 | 0.00 | 0.00 | 0.00 | 72 | 1021.2 |
| 20260507134531 | 51 | 0.0 | 0.0 | 0.00 | 0.00 | 0.00 | 1021.0 | ||
| 20260507133008 | 51 | 360 | 2.0 | 4.0 | 0.00 | 0.00 | 0.00 | 72 | 1021.1 |
| 20260507131535 | 51 | 331 | 1.0 | 4.0 | 0.00 | 0.00 | 0.00 | 72 | 1020.9 |
| 20260507130032 | 51 | 2.0 | 6.0 | 0.00 | 0.00 | 0.00 | 72 | 1021.0 | |
| 20260507124520 | 51 | 333 | 2.0 | 4.0 | 0.00 | 0.00 | 0.00 | 72 | 1021.0 |
| 20260507123002 | 52 | 304 | 1.0 | 4.0 | 0.00 | 0.00 | 0.00 | 72 | 1021.0 |
| 20260507121534 | 52 | 2.0 | 3.0 | 0.00 | 0.00 | 0.00 | 73 | 1021.1 | |
| 20260507120039 | 0 | 0.0 | 0.0 | 0.00 | 0.00 | 0.00 | 1020.9 | ||
| 20260507114521 | 52 | 286 | 2.0 | 7.0 | 0.00 | 0.00 | 0.00 | 72 | 1021.2 |
| 20260507113033 | 53 | 2.0 | 8.0 | 0.00 | 0.00 | 0.00 | 71 | 1021.1 | |
| 20260507111530 | 0 | 0.0 | 0.0 | 0.00 | 0.00 | 0.00 | 1021.2 | ||
| 20260507110011 | 53 | 286 | 2.0 | 7.0 | 0.00 | 0.00 | 0.00 | 71 | 1021.2 |
| 20260507104531 | 53 | 331 | 4.0 | 9.0 | 0.00 | 0.00 | 0.00 | 71 | 1021.3 |
| 20260507103034 | 0 | 0.0 | 0.0 | 0.00 | 0.00 | 0.00 | 1021.3 | ||
| 20260507101506 | 53 | 312 | 2.0 | 8.0 | 0.00 | 0.00 | 0.00 | 72 | 1021.4 |
| 20260507100035 | 54 | 3.0 | 6.0 | 0.00 | 0.00 | 0.00 | 71 | 1021.4 | |
| 20260507094517 | 54 | 339 | 5.0 | 0.0 | 0.00 | 0.00 | 0.00 | 71 | 1021.7 |
| 20260507093018 | 54 | 271 | 2.0 | 9.0 | 0.00 | 0.00 | 0.00 | 72 | 1021.7 |
| 20260507091533 | 54 | 5.0 | 9.0 | 0.00 | 0.00 | 0.00 | 73 | 1021.7 | |
| 20260507090036 | 54 | 3.0 | 8.0 | 0.00 | 0.00 | 0.00 | 72 | 1021.7 | |
| 20260507084513 | 55 | 305 | 3.0 | 6.0 | 0.00 | 0.00 | 0.00 | 72 | 1021.7 |
| 20260507083031 | 55 | 0.0 | 0.0 | 0.00 | 0.00 | 0.00 | 73 | 1021.8 | |
| 20260507081541 | 55 | 342 | 2.0 | 0.0 | 0.00 | 0.00 | 0.00 | 72 | 1021.7 |
| 20260507080033 | 55 | 321 | 1.0 | 4.0 | 0.00 | 0.00 | 0.00 | 73 | 1021.9 |
| 20260507074550 | 0 | 0.0 | 0.0 | 0.00 | 0.00 | 0.00 | 74 | 1021.7 | |
| 20260507073028 | 55 | 267 | 3.0 | 0.0 | 0.00 | 0.00 | 0.00 | 74 | 1021.8 |
| 20260507071534 | 55 | 2.0 | 5.0 | 0.00 | 0.00 | 0.00 | 74 | 1021.5 | |
| 20260507070029 | 0 | 313 | 1.0 | 0.0 | 0.00 | 0.00 | 0.00 | 1021.7 | |
| 20260507064527 | 55 | 267 | 4.0 | 8.0 | 0.00 | 0.00 | 0.00 | 74 | 1021.7 |
| 20260507063030 | 55 | 3.0 | 4.0 | 0.00 | 0.00 | 0.00 | 74 | 1021.6 | |
| 20260507061518 | 55 | 301 | 2.0 | 7.0 | 0.00 | 0.00 | 0.00 | 74 | 1021.7 |
| 20260507060033 | 0 | 305 | 3.0 | 0.0 | 0.00 | 0.00 | 0.00 | 1021.6 | |
| 20260507054533 | 55 | 0.0 | 0.0 | 0.00 | 0.00 | 0.00 | 73 | 1021.7 | |
| 20260507053026 | 0 | 327 | 3.0 | 0.0 | 0.00 | 0.00 | 0.00 | 73 | 1021.5 |
| 20260507051530 | 56 | 306 | 3.0 | 11.0 | 0.00 | 0.00 | 0.00 | 71 | 1021.7 |
| 20260507050033 | 0 | 0.0 | 0.0 | 0.00 | 0.00 | 0.00 | 1021.5 | ||
| 20260507044522 | 57 | 336 | 4.0 | 8.0 | 0.00 | 0.00 | 0.00 | 72 | 1021.7 |
| 20260507043033 | 58 | 8.0 | 12.0 | 0.00 | 0.00 | 0.00 | 71 | 1021.5 | |
| 20260507041528 | 58 | 295 | 7.0 | 0.0 | 0.00 | 0.00 | 0.00 | 70 | 1021.4 |
| 20260507040036 | 58 | 6.0 | 11.0 | 0.00 | 0.00 | 0.00 | 70 | 1021.2 | |
| 20260507034533 | 0 | 0.0 | 0.0 | 0.00 | 0.00 | 0.00 | 1020.9 | ||
| 20260507033032 | 59 | 320 | 4.0 | 8.0 | 0.00 | 0.00 | 0.00 | 71 | 1020.7 |
| 20260507031508 | 60 | 311 | 4.0 | 9.0 | 0.00 | 0.00 | 0.00 | 71 | 1020.6 |
| 20260507030003 | 0 | 277 | 6.0 | 0.0 | 0.00 | 0.00 | 0.00 | 70 | 1020.4 |
| 20260507024508 | 60 | 0.0 | 0.0 | 0.00 | 0.00 | 0.00 | 1020.1 | ||
| 20260507023008 | 61 | 319 | 5.0 | 11.0 | 0.00 | 0.00 | 0.00 | 68 | 1020.1 |
| 20260507021506 | 62 | 5.0 | 10.0 | 0.00 | 0.00 | 0.00 | 68 | 1020.1 | |
| 20260507020007 | 63 | 319 | 9.0 | 13.0 | 0.00 | 0.00 | 0.00 | 67 | 1020.2 |
| 20260507014507 | 64 | 5.0 | 13.0 | 0.00 | 0.00 | 0.00 | 66 | 1020.3 | |
| 20260507013009 | 64 | 313 | 7.0 | 12.0 | 0.00 | 0.00 | 0.00 | 66 | 1020.3 |
| 20260507011507 | 66 | 0.0 | 0.0 | 0.00 | 0.00 | 0.00 | 66 | 1020.1 | |
| 20260507010010 | 66 | 349 | 4.0 | 11.0 | 0.00 | 0.00 | 0.00 | 67 | 1020.3 |
| 20260507004515 | 0 | 0.0 | 0.0 | 0.00 | 0.00 | 0.00 | 1020.2 | ||
| 20260507003005 | 66 | 15 | 4.0 | 7.0 | 0.00 | 0.00 | 0.00 | 67 | 1020.2 |
| 20260507001508 | 0 | 0.0 | 0.0 | 0.00 | 0.00 | 0.00 | 1020.0 | ||
| 20260507000032 | 67 | 340 | 2.0 | 8.0 | 0.00 | 0.00 | 0.00 | 65 | 1020.2 |
| 20260506234532 | 0 | 0.0 | 0.0 | 0.00 | 0.00 | 0.00 | 1020.1 | ||
| 20260506233035 | 67 | 3.0 | 7.0 | 0.00 | 0.00 | 0.00 | 65 | 1020.1 | |
| 20260506231523 | 67 | 344 | 5.0 | 0.0 | 0.00 | 0.00 | 0.00 | 1020.0 | |
| 20260506230031 | 67 | 0.0 | 0.0 | 0.00 | 0.00 | 0.00 | 63 | 1020.3 | |
| 20260506224531 | 67 | 305 | 5.0 | 8.0 | 0.00 | 0.00 | 0.00 | 62 | 1020.4 |
| 20260506223032 | 0 | 0.0 | 0.0 | 0.00 | 0.00 | 0.00 | 1020.6 | ||
| 20260506221528 | 66 | 346 | 4.0 | 8.0 | 0.00 | 0.00 | 0.00 | 62 | 1020.6 |
| 20260506220025 | 0 | 314 | 5.0 | 0.0 | 0.00 | 0.00 | 0.00 | 1020.5 | |
| 20260506214533 | 67 | 0.0 | 0.0 | 0.00 | 0.00 | 0.00 | 62 | 1020.6 | |
| 20260506213033 | 0 | 0.0 | 0.0 | 0.00 | 0.00 | 0.00 | 1020.8 | ||
| 20260506211534 | 0 | 0.0 | 0.0 | 0.00 | 0.00 | 0.00 | 1021.2 | ||
| 20260506210009 | 63 | 360 | 2.0 | 6.0 | 0.00 | 0.00 | 0.00 | 70 | 1021.3 |
| 20260506204523 | 0 | 0.0 | 0.0 | 0.00 | 0.00 | 0.00 | 1021.2 | ||
| 20260506203017 | 63 | 352 | 2.0 | 4.0 | 0.00 | 0.00 | 0.00 | 70 | 1021.1 |
| 20260506201519 | 0 | 0.0 | 0.0 | 0.00 | 0.00 | 0.00 | 1021.3 | ||
| 20260506200016 | 63 | 2.0 | 5.0 | 0.00 | 0.00 | 0.00 | 71 | 1021.4 |